Regional Weather Roundup
Issued by NWS Goodland, KS

Home | Current Version | Previous Version | Graphics & Text | Print | Product List | Glossary On
Versions: 1 2 3 4 5 6 7 8 9 10 11 12 13 14 15 16 17 18 19 20 21 22 23 24 25 26 27 28 29 30 31 32 33 34 35 36 37 38 39 40 41 42 43 44 45 46 47 48 49 50
000
ASUS43 KGLD 241459
RWRGLD

GOODLAND FORECAST AREA HOURLY WEATHER ROUNDUP
NATIONAL WEATHER SERVICE GOODLAND KS
800 AM MST WED DEC 24 2014

...OFFICIAL OBSERVATIONS...

CITY           SKY/WX    TMP DP  RH WIND       PRES   REMARKS
GOODLAND KS    PTCLDY    18  10  71 W10       29.94F WCI   6
HILL CITY KS   CLEAR     25  18  74 W8        29.98F
IMPERIAL NEB   PTCLDY    16   9  74 W12       29.92F WCI   3
MCCOOK NEB     CLEAR     18  14  84 W12       29.96S WCI   5
AKRON CO       PTCLDY    21   9  59 SW13      29.88F WCI   9
BURLINGTON CO  MOCLDY    15   7  70 SW9       29.94S
LIMON CO       CLEAR     13   7  77 CALM      29.92F
$$

...UNOFFICIAL OBSERVATIONS...

CITY           SKY/WX    TMP DP  RH WIND       PRES   REMARKS
COLBY KS       CLEAR     16  14  93 W9        29.96F
GOVE KS          N/A     20  32 100 MISG        N/A
NORTON KS      CLEAR     23  16  74 W9        29.94F
SHARON SPRINGS   N/A     18  14  85 CALM        N/A
TRIBUNE KS     PTCLDY    21  18  86 W10       29.99F WCI  10
KIT CARSON CO    N/A     18  12  78 CALM        N/A
YUMA CO          N/A     10   4  75 CALM        N/A
$$



USA.gov is the U.S. government's official web portal to all federal, state and local government web resources and services.